Probability
10 87 100 97 94 97 97 100 97 94 90 81 58 19 3 0 0 0 0 0 0 0 0 0 0 0 0 0 0 0 0 0 0 0 0 0 0 0 0 0 0 0 0
35 90 100 100 90 97 100 100 97 94 87 68 29 13 3 0 0 0 0 0 0 0 0 0 0 0 0 0 0 0 0 0 0 0 0 0 0 0 0 0 0 0 0
68 74 71 100 97 94 90 97 94 84 71 35 19 3 0 0 0 0 0 0 0 0 0 0 0 0 0 0 0 0 0 0 0 0 0 0 0 0 0 0 0 0 0
35 42 10 97 90 90 87 87 77 74 52 26 13 0 0 0 0 0 0 0 0 0 0 0 0 0 0 0 0 0 0 0 0 0 0 0 0 0 0 0 0 0 0
16 13 32 97 81 68 61 48 61 55 42 26 6 0 0 0 0 0 0 0 0 0 0 0 0 0 0 0 0 0 0 0 0 0 0 0 0 0 0 0 0 0 0
3 3 29 81 58 52 45 35 26 35 39 19 3 0 0 0 0 0 0 0 0 0 0 0 0 0 0 0 0 0 0 0 0 0 0 0 0 0 0 0 0 0 0
3 3 6 48 26 13 16 10 23 26 32 16 0 0 0 0 0 0 0 0 0 0 0 0 0 0 0 0 0 0 0 0 0 0 0 0 0 0 0 0 0 0 0
6 0 0 10 6 3 3 13 35 42 29 13 3 0 0 0 0 0 0 0 0 0 0 0 0 0 0 0 0 0 0 0 0 0 0 0 0 0 0 0 0 0 0
10 0 0 0 0 0 0 10 26 42 26 16 3 0 0 0 0 0 0 0 0 0 0 0 0 0 0 0 0 0 0 0 0 0 0 0 0 0 0 0 0 0 0
32 10 0 0 0 0 0 0 0 3 6 3 0 0 0 0 0 0 0 0 0 0 0 0 0 0 0 0 0 0 0 0 0 0 0 0 0 0 0 0 0 0 0
23 29 6 0 0 0 0 0 0 0 0 0 0 0 0 0 0 0 0 0 0 0 0 0 0 0 0 0 0 0 0 0 0 0 0 0 0 0 0 0 0 0 0
23 26 10 3 0 0 0 0 0 0 0 0 0 0 0 0 0 0 0 0 0 0 0 0 0 0 0 0 0 0 0 0 0 0 0 0 0 0 0 0 0 0 0
6 26 16 6 0 0 0 0 0 0 0 0 0 0 0 0 0 0 0 0 0 0 0 0 0 0 0 0 0 0 0 0 0 0 0 0 0 0 0 0 0 0 0
16 19 19 6 6 0 0 0 0 0 0 0 0 0 0 0 0 0 0 0 0 0 0 0 0 0 0 0 0 0 0 0 0 0 0 0 0 0 0 0 0 0 0
19 26 35 32 19 16 6 3 0 3 0 0 0 0 0 0 0 0 0 0 0 0 0 0 0 0 0 0 0 0 0 0 0 0 0 0 0 0 0 0 0 0 0
26 26 45 48 35 29 13 10 3 3 0 0 0 0 0 0 0 0 0 0 0 0 0 0 0 0 0 0 0 0 0 0 0 0 0 0 0 0 0 0 0 0 0
13 19 42 58 65 61 55 39 10 19 0 0 0 0 0 0 0 0 0 0 0 0 0 0 0 0 0 0 0 0 0 0 0 0 0 0 0 0 0 0 0 0 0
0 6 16 29 65 77 77 74 55 23 10 6 0 0 0 0 0 0 0 0 0 0 0 0 0 0 0 0 0 0 0 0 0 0 0 0 0 0 0 0 0 0 0
0 0 6 23 42 68 100 100 77 52 23 10 6 0 0 0 0 0 0 0 0 0 0 0 0 0 0 0 0 0 0 0 0 0 0 0 0 0 0 0 0 0 0
0 0 0 0 19 35 71 87 94 74 48 32 10 0 0 0 0 0 0 0 0 0 0 0 0 0 0 0 0 0 0 0 0 0 0 0 0 0 0 0 0 0 0
0 0 0 0 0 16 29 65 77 71 61 52 26 6 0 0 0 0 0 0 0 0 0 0 0 0 0 0 0 0 0 0 0 0 0 0 0 0 0 0 0 0 0
0 0 0 0 0 0 13 26 39 58 55 61 58 32 3 3 0 0 0 0 0 0 0 0 0 0 0 0 0 0 0 0 0 0 0 0 0 0 0 0 0 0 0
0 0 0 0 0 0 0 6 19 42 61 52 52 45 29 10 0 0 0 0 0 0 0 0 0 0 0 0 0 0 0 0 0 0 0 0 0 0 0 0 0 0 0
0 0 0 0 0 0 0 0 3 3 6 6 23 48 48 19 3 0 0 0 0 0 0 0 0 0 0 0 0 0 0 0 0 0 0 0 0 0 0 0 0 0 0
0 0 0 0 0 0 0 0 0 0 0 0 6 32 42 29 6 0 0 0 0 0 0 0 0 0 0 0 0 0 0 0 0 0 0 0 0 0 0 0 0 0 0
0 0 0 0 0 0 0 0 0 0 0 0 3 13 10 26 10 6 0 0 0 0 0 0 0 0 0 0 0 0 0 0 0 0 0 0 0 0 0 0 0 0 0
Height
5884 5885 5885 5886 5886 5887 5888 5888 5888 5888 5887 5887 5887 5887 5887 5886 5886 5886 5885 5885 5884 5883 5883 5883 5882 5882 5881 5881 5881 5880 5880 5879 5879 5878 5877 5877 5876 5875 5874 5874 5873 5873 5872
5882 5883 5883 5884 5884 5885 5885 5886 5886 5886 5885 5885 5885 5884 5884 5884 5884 5883 5883 5882 5882 5881 5880 5880 5880 5879 5879 5879 5878 5878 5878 5877 5876 5876 5875 5874 5874 5873 5872 5871 5871 5870 5869
5879 5880 5881 5881 5882 5883 5883 5884 5884 5883 5883 5883 5883 5882 5882 5881 5881 5881 5880 5880 5879 5878 5878 5877 5877 5877 5876 5876 5876 5875 5875 5875 5874 5873 5873 5872 5871 5870 5870 5869 5868 5867 5867
5877 5878 5878 5879 5880 5880 5881 5881 5881 5881 5881 5881 5880 5880 5880 5879 5879 5878 5878 5877 5876 5876 5875 5874 5874 5874 5874 5873 5873 5872 5872 5872 5871 5871 5870 5869 5868 5868 5867 5866 5866 5865 5864
5874 5875 5876 5876 5877 5878 5878 5879 5879 5879 5879 5878 5878 5878 5877 5877 5876 5876 5875 5874 5874 5873 5872 5872 5871 5871 5870 5870 5870 5869 5869 5868 5868 5867 5866 5866 5865 5865 5864 5863 5863 5862 5861
5871 5872 5873 5874 5874 5875 5875 5876 5876 5876 5876 5876 5876 5875 5875 5874 5874 5873 5872 5871 5871 5870 5870 5869 5869 5868 5867 5867 5866 5866 5865 5865 5864 5864 5863 5863 5862 5861 5861 5860 5860 5859 5858
5867 5868 5869 5870 5871 5871 5872 5872 5873 5873 5873 5873 5873 5872 5872 5871 5871 5870 5869 5869 5868 5867 5867 5866 5865 5865 5864 5864 5863 5863 5862 5861 5861 5860 5860 5859 5859 5858 5858 5857 5856 5855 5854
5864 5865 5865 5866 5867 5867 5868 5869 5869 5869 5869 5869 5869 5869 5869 5868 5867 5867 5866 5865 5865 5864 5863 5863 5862 5862 5861 5861 5860 5859 5859 5858 5857 5857 5856 5856 5855 5855 5854 5854 5853 5852 5850
5860 5860 5861 5862 5863 5863 5864 5865 5865 5865 5865 5865 5865 5865 5865 5865 5864 5864 5863 5862 5862 5861 5860 5860 5859 5859 5858 5857 5856 5856 5855 5854 5853 5853 5852 5852 5851 5851 5850 5849 5848 5847 5846
5855 5856 5856 5857 5858 5859 5859 5860 5860 5861 5861 5861 5861 5861 5861 5861 5860 5860 5859 5859 5858 5857 5857 5856 5856 5855 5855 5854 5853 5852 5851 5850 5850 5849 5848 5847 5847 5846 5845 5844 5843 5842 5840
5850 5851 5852 5852 5853 5854 5855 5855 5856 5856 5856 5856 5857 5857 5857 5857 5856 5856 5855 5855 5854 5854 5853 5852 5852 5851 5851 5850 5850 5849 5848 5847 5846 5845 5844 5843 5842 5841 5840 5839 5838 5836 5835
5845 5846 5847 5848 5849 5849 5850 5850 5851 5851 5852 5852 5852 5852 5852 5852 5852 5852 5851 5850 5850 5849 5849 5848 5848 5847 5846 5846 5845 5845 5844 5843 5842 5841 5839 5838 5837 5836 5835 5833 5832 5831 5830
5841 5842 5843 5844 5844 5845 5845 5846 5846 5847 5847 5847 5847 5847 5847 5847 5847 5847 5846 5846 5845 5845 5844 5844 5843 5842 5842 5841 5841 5840 5839 5838 5837 5836 5835 5834 5833 5831 5830 5828 5827 5826 5824
5836 5838 5838 5839 5840 5840 5840 5841 5841 5841 5842 5842 5842 5842 5842 5842 5842 5842 5842 5841 5840 5840 5839 5839 5838 5837 5836 5836 5836 5835 5835 5834 5833 5832 5830 5829 5828 5826 5825 5823 5822 5820 5818
5831 5833 5833 5834 5835 5835 5835 5836 5836 5836 5836 5836 5836 5837 5837 5837 5837 5837 5837 5836 5835 5834 5834 5833 5832 5832 5831 5830 5830 5830 5829 5829 5828 5827 5825 5824 5822 5821 5819 5818 5816 5814 5812
5826 5827 5828 5829 5829 5829 5830 5830 5830 5830 5830 5830 5831 5831 5831 5831 5831 5831 5831 5831 5830 5829 5828 5827 5827 5826 5825 5825 5824 5824 5824 5823 5822 5821 5820 5818 5817 5815 5813 5812 5810 5808 5806
5820 5821 5822 5822 5823 5823 5824 5824 5824 5824 5824 5824 5824 5825 5825 5825 5825 5825 5825 5825 5824 5823 5822 5821 5820 5820 5819 5819 5818 5818 5817 5817 5816 5815 5813 5812 5810 5809 5807 5806 5804 5802 5800
5814 5815 5816 5816 5817 5817 5817 5817 5817 5817 5817 5817 5817 5818 5818 5819 5819 5818 5818 5818 5817 5816 5815 5815 5814 5813 5813 5812 5812 5811 5811 5810 5809 5808 5807 5806 5804 5803 5801 5800 5799 5797 5795
5808 5809 5810 5810 5811 5811 5811 5810 5810 5810 5810 5810 5810 5810 5811 5811 5811 5810 5810 5810 5809 5809 5809 5808 5807 5806 5806 5805 5805 5804 5804 5803 5802 5801 5800 5799 5798 5797 5795 5794 5792 5791 5789
5801 5802 5803 5804 5804 5804 5803 5803 5803 5803 5803 5802 5802 5802 5802 5802 5801 5801 5802 5802 5801 5801 5801 5800 5799 5799 5799 5798 5797 5797 5797 5796 5795 5795 5793 5792 5791 5790 5788 5787 5786 5784 5782
5793 5795 5796 5796 5796 5796 5795 5795 5795 5794 5794 5793 5792 5792 5792 5792 5792 5792 5792 5793 5793 5792 5792 5791 5791 5791 5791 5790 5790 5789 5789 5788 5788 5787 5786 5785 5784 5782 5781 5780 5778 5777 5775
5784 5785 5786 5787 5787 5786 5786 5786 5786 5785 5785 5784 5783 5782 5782 5782 5782 5782 5782 5783 5783 5782 5782 5782 5782 5782 5782 5782 5781 5780 5780 5781 5780 5779 5778 5777 5776 5774 5773 5771 5770 5768 5767
5774 5776 5776 5776 5777 5776 5776 5776 5776 5775 5775 5774 5773 5772 5771 5770 5770 5770 5771 5771 5771 5771 5772 5772 5772 5772 5772 5772 5772 5772 5772 5772 5771 5770 5769 5768 5767 5765 5764 5762 5761 5759 5757
5765 5766 5766 5766 5765 5765 5765 5764 5764 5764 5763 5763 5762 5760 5759 5758 5757 5758 5758 5759 5760 5760 5761 5761 5761 5762 5762 5762 5762 5762 5762 5762 5761 5761 5760 5758 5757 5756 5754 5753 5751 5749 5747
5756 5756 5756 5755 5755 5754 5753 5753 5752 5751 5750 5750 5749 5748 5747 5746 5745 5745 5745 5746 5747 5748 5749 5749 5750 5751 5751 5752 5752 5751 5751 5750 5750 5749 5749 5748 5747 5745 5744 5742 5740 5738 5736
5747 5746 5746 5745 5744 5743 5742 5741 5739 5738 5737 5736 5735 5734 5733 5733 5733 5732 5732 5732 5733 5734 5735 5737 5738 5738 5739 5740 5740 5741 5740 5740 5740 5738 5738 5737 5736 5735 5733 5731 5729 5727 5725
Wind_Speed
14 14 15 16 16 16 15 15 15 15 15 17 17 18 18 18 18 18 18 18 17 17 16 16 15 15 15 14 14 14 15 15 16 16 16 16 15 15 15 16 16 16 17
15 16 16 17 17 17 17 16 15 15 15 15 15 16 17 17 18 18 19 19 19 20 20 20 19 18 18 17 16 16 16 17 17 18 18 17 17 17 17 16 16 17 17
17 17 17 18 18 18 18 17 16 16 15 15 15 15 15 16 16 17 18 19 20 21 21 21 21 20 19 19 18 18 18 18 19 19 20 19 19 18 18 18 18 17 18
18 17 17 18 18 18 18 17 16 16 15 15 15 15 16 16 16 16 17 18 19 19 20 21 21 20 20 19 19 20 20 20 20 20 21 21 20 20 20 19 19 18 18
18 17 17 17 18 17 16 16 16 15 15 15 16 16 16 17 17 18 18 19 19 19 19 19 20 20 20 20 20 20 20 21 21 21 21 21 21 20 20 20 19 19 19
18 17 17 18 18 18 17 17 17 17 17 17 17 17 17 18 18 18 18 18 18 18 19 19 19 20 20 20 21 21 21 22 22 22 22 22 22 21 20 20 20 20 20
19 19 19 20 21 21 20 19 19 19 19 19 18 18 18 18 18 18 17 17 17 18 18 19 19 20 20 21 21 22 22 22 23 23 23 23 22 22 21 21 21 21 21
21 22 22 23 24 24 23 22 21 21 20 19 19 19 18 18 17 17 17 17 17 18 18 19 19 20 20 21 21 22 22 22 23 23 24 24 23 23 23 23 23 24 24
25 26 26 27 27 26 26 25 24 23 22 21 20 19 19 18 18 17 17 18 18 18 18 19 19 19 20 20 21 21 22 22 23 23 24 24 25 25 26 27 27 27 28
28 29 30 29 29 28 27 26 25 25 24 22 21 20 20 19 19 19 19 19 19 19 19 19 19 19 19 19 20 20 20 21 21 22 23 25 26 27 29 30 30 30 31
31 31 31 31 30 29 29 28 27 27 26 24 23 22 21 21 20 20 20 20 20 20 20 20 20 20 20 20 20 20 20 20 21 21 22 23 25 26 28 29 30 30 31
31 31 31 31 30 30 30 29 29 28 27 26 25 24 23 23 22 21 21 21 21 21 21 22 22 22 22 21 21 21 21 21 22 22 23 23 24 25 26 27 28 28 29
30 30 29 30 30 30 31 30 30 29 28 28 27 26 26 25 23 23 22 23 23 23 23 24 24 25 24 24 23 23 23 23 23 24 24 24 25 26 27 27 28 29 30
28 28 28 29 29 30 31 32 31 30 30 29 29 28 27 26 26 25 24 25 25 25 26 26 26 27 27 27 26 25 25 25 25 25 25 26 27 27 28 29 29 31 32
28 28 29 29 30 31 32 32 32 32 32 32 31 30 30 29 28 27 27 27 27 27 28 28 28 29 29 29 28 27 27 26 26 26 27 28 28 29 30 30 31 32 33
30 30 31 31 31 32 32 33 33 33 34 34 33 33 32 32 31 30 30 30 29 29 29 29 30 30 30 30 30 29 29 28 27 28 29 29 30 30 30 30 31 31 31
32 32 33 33 33 33 34 34 34 35 35 35 35 35 35 34 34 33 32 32 32 32 31 31 30 30 31 31 31 30 30 29 29 29 29 29 29 29 29 29 30 30 29
34 34 35 35 35 36 36 36 37 38 38 38 38 38 38 37 37 36 36 35 35 34 34 32 31 31 31 31 32 31 30 30 29 29 29 29 28 27 27 28 28 28 27
36 36 36 37 37 38 39 39 40 41 41 41 41 41 40 40 40 40 40 39 38 37 36 35 34 33 33 32 32 32 31 30 30 29 29 28 27 27 27 27 27 27 27
37 38 38 38 38 39 41 42 43 43 43 44 44 44 44 44 44 43 43 42 42 40 39 38 36 35 34 34 34 33 33 32 31 30 29 29 29 29 29 29 29 29 29
39 40 40 40 40 41 42 43 44 45 46 47 47 48 48 48 48 47 46 45 44 44 43 42 40 37 36 36 36 36 35 33 32 32 31 31 31 32 32 32 32 32 32
42 42 42 42 42 43 43 44 46 47 48 49 50 50 50 50 51 50 49 48 48 47 46 45 43 41 40 39 39 38 37 35 34 34 34 34 34 34 35 35 35 35 35
44 44 43 43 44 44 45 45 46 47 48 50 51 51 51 52 53 53 52 52 51 50 49 48 47 45 43 42 41 41 39 38 37 37 37 37 37 37 38 38 38 39 39
45 45 45 44 44 45 45 46 47 47 48 49 51 52 53 54 55 56 55 54 53 53 52 50 49 48 47 45 44 44 43 42 40 39 40 40 40 40 40 41 41 42 43
44 44 44 44 44 44 45 46 47 48 49 50 51 52 54 55 56 57 57 57 56 55 55 53 52 51 50 48 47 46 46 45 44 43 43 43 42 42 43 43 44 45 46
41 41 41 42 42 43 44 45 47 48 49 51 52 54 55 56 57 58 59 60 59 59 58 57 55 54 52 51 50 49 48 48 47 47 46 45 44 44 45 46 47 48 49
Wind_Direction
255 258 261 263 264 265 265 266 266 267 268 269 269 269 270 270 270 270 270 271 274 277 280 283 285 287 287 287 286 285 283 282 281 280 279 279 279 280 281 282 283 285 286
254 257 260 263 265 266 266 266 267 268 270 272 273 273 274 274 273 271 270 270 272 275 278 281 283 285 287 287 287 286 285 284 283 282 281 281 282 282 282 282 283 286 289
252 257 261 264 266 267 269 271 272 271 271 273 275 277 278 278 278 276 274 273 273 275 277 279 281 282 284 285 285 285 286 286 285 284 284 284 284 284 284 284 286 289 292
253 258 262 265 266 268 270 273 275 276 275 276 277 279 280 281 281 280 279 279 279 279 279 279 280 281 281 282 283 284 284 285 285 285 285 284 285 286 287 287 288 291 294
250 254 259 263 265 267 268 271 274 277 279 281 282 284 283 283 283 282 282 283 284 285 284 283 283 283 283 282 282 282 283 284 285 285 285 285 285 286 286 286 288 292 296
246 251 256 261 265 268 271 273 275 278 281 284 286 288 287 286 285 284 284 284 285 285 285 285 285 285 285 285 284 283 283 283 284 284 284 284 283 283 282 284 287 291 296
245 252 258 264 268 271 274 276 277 278 280 283 286 288 288 287 287 285 284 284 285 285 285 285 286 286 287 287 287 286 285 284 282 282 281 280 279 278 279 282 286 290 295
247 253 257 262 267 270 273 275 276 277 278 281 283 285 286 286 286 286 284 284 285 286 286 286 286 286 286 286 287 286 286 285 283 281 280 278 277 277 278 281 284 288 293
248 253 256 259 264 267 270 272 274 275 276 277 279 280 281 282 284 286 286 285 285 286 287 287 287 286 286 286 287 287 287 287 285 284 281 279 278 278 279 281 284 287 291
249 253 255 258 261 264 266 268 270 272 273 275 275 276 276 277 281 284 285 286 286 286 287 287 286 286 286 286 286 287 287 288 287 285 283 281 280 280 280 282 285 288 290
249 252 254 257 259 261 263 265 267 269 271 272 273 273 273 274 277 281 283 284 284 285 286 285 284 283 283 283 284 285 286 287 287 287 285 284 284 284 284 286 288 290 291
248 251 254 256 258 259 261 263 265 267 269 270 271 271 273 274 276 279 281 281 281 281 282 282 282 281 281 281 282 283 284 285 286 287 287 287 287 288 288 290 291 293 294
249 252 254 256 258 259 261 262 264 265 267 268 269 270 272 274 276 277 279 279 279 278 277 277 278 278 279 280 281 283 284 285 286 287 288 289 290 290 291 292 293 295 297
247 251 254 256 258 260 262 263 263 264 265 266 267 268 271 273 275 276 277 277 278 277 275 274 273 274 275 277 279 280 283 284 285 286 287 289 290 291 292 294 296 297 299
248 250 253 256 259 261 263 265 265 265 265 265 266 267 269 270 273 274 275 276 276 276 275 273 272 271 272 274 275 277 279 281 283 284 286 288 290 291 292 294 296 297 298
250 252 254 256 259 261 263 265 266 267 267 267 267 267 268 270 272 273 273 274 275 275 274 273 272 270 271 271 272 274 276 278 280 282 285 288 289 290 292 294 297 299 299
251 254 256 259 261 262 263 265 265 265 266 267 268 268 269 270 271 272 272 273 273 273 273 273 272 271 271 271 271 272 273 276 278 281 284 287 288 289 291 293 296 299 301
251 255 258 261 262 264 265 265 266 266 265 266 267 268 269 271 271 271 270 270 271 271 273 273 272 271 271 271 271 271 272 273 277 281 283 286 287 288 290 292 295 298 300
253 256 260 262 264 265 266 266 266 267 268 268 268 268 268 269 269 269 268 268 269 270 271 272 272 271 270 271 271 271 271 272 274 278 281 283 285 287 288 290 293 295 297
255 258 261 264 265 266 266 266 267 268 269 269 269 267 266 265 265 265 265 265 267 268 268 269 269 270 270 270 270 270 270 271 273 276 278 281 283 285 286 288 290 292 293
259 261 264 265 267 267 267 267 267 267 268 268 268 267 266 265 264 263 263 264 264 265 265 266 267 268 269 269 269 269 270 271 272 274 277 279 282 283 285 286 287 288 289
263 265 266 268 269 269 269 268 267 267 267 268 268 269 269 268 267 265 264 263 262 262 263 264 265 266 267 268 269 269 270 271 271 273 276 278 280 281 282 284 285 286 286
266 268 269 270 271 271 271 271 270 270 269 269 269 268 268 266 265 263 262 261 260 260 260 262 263 265 266 267 268 269 270 270 270 272 275 277 279 280 281 282 284 285 285
268 270 272 273 273 273 273 273 272 271 270 269 267 266 266 265 264 263 261 260 258 258 259 260 262 264 265 266 268 268 268 269 270 271 273 275 277 279 281 282 282 283 284
269 272 273 274 274 274 274 273 272 271 270 268 267 266 265 264 263 262 260 258 257 257 257 258 260 262 264 265 266 268 269 270 270 272 273 275 277 279 280 281 282 282 283
271 272 273 274 275 275 275 274 274 273 272 270 268 266 265 263 262 260 259 257 256 255 256 256 258 259 261 262 264 266 268 271 272 273 274 275 276 279 280 282 282 283 282